Location: Ithaca
(42.4410°N, 76.4970°W)
Time: 11:10:42
(UTC-04:00)

ISS - Visible Passes

Search period start: 26 July 2014 00:00
Search period end: 05 August 2014 00:00
Orbit: 411 x 420 km, 51.6° (Epoch: 26 July)

Date Brightness Start Highest point End Pass type
(mag) Time Alt. Az. Time Alt. Az. Time Alt. Az.
26 Jul -1.4 03:00:04 25° NNW 03:00:32 26° NNW 03:03:26 10° NE visible
26 Jul -0.5 04:35:47 10° NW 04:38:05 17° N 04:40:23 10° NE visible
27 Jul -0.9 02:12:54 25° NNE 02:12:54 25° NNE 02:14:43 10° NE visible
27 Jul -0.5 03:46:43 10° NW 03:49:03 17° N 03:51:22 10° NE visible
28 Jul -0.1 01:25:44 12° NE 01:25:44 12° NE 01:26:01 10° NE visible
28 Jul -0.7 02:58:35 15° NW 03:00:01 19° N 03:02:30 10° NE visible
28 Jul -0.5 04:35:06 10° NW 04:37:38 19° N 04:40:10 10° ENE visible
29 Jul -0.7 02:11:25 21° N 02:11:25 21° N 02:13:43 10° NE visible
29 Jul -0.4 03:46:16 10° NW 03:48:37 17° N 03:50:59 10° NE visible
30 Jul -0.2 01:24:16 14° NNE 01:24:16 14° NNE 01:25:00 10° NE visible
30 Jul -0.3 02:57:18 10° NW 02:59:35 17° N 03:01:53 10° NE visible
30 Jul -1.1 04:34:09 10° NW 04:37:07 28° NNE 04:40:04 10° E visible
31 Jul -0.4 02:10:01 17° NNW 02:10:33 17° N 02:12:54 10° NE visible
31 Jul -0.7 03:45:26 10° NW 03:48:09 22° NNE 03:50:52 10° ENE visible
31 Jul -3.2 05:21:52 10° NW 05:25:15 85° NNE 05:28:37 10° ESE visible
01 Aug -0.2 01:23:02 15° NNE 01:23:02 15° NNE 01:24:03 10° NE visible
01 Aug -0.4 02:56:40 10° NW 02:59:09 19° N 03:01:39 10° ENE visible
01 Aug -2.4 04:33:08 10° NW 04:36:26 53° NNE 04:39:44 10° ESE visible
02 Aug -0.3 02:09:15 16° NNW 02:10:08 17° N 02:12:28 10° NE visible
02 Aug -1.6 03:44:25 10° NW 03:47:34 35° NNE 03:50:42 10° E visible
02 Aug -2.6 05:21:11 10° WNW 05:24:17 35° SW 05:27:23 10° SSE visible
02 Aug -3.2 22:03:29 10° SW 22:06:43 52° SE 22:08:19 26° ENE visible
02 Aug -0.5 23:40:38 10° W 23:41:28 15° WNW 23:41:28 15° WNW visible
03 Aug -1.0 02:56:34 15° NNW 02:58:39 26° NNE 03:01:33 10° E visible
03 Aug -3.3 04:32:15 10° WNW 04:35:35 62° SW 04:38:54 10° SE visible
03 Aug -2.5 21:15:05 10° SSW 21:18:02 30° SE 21:21:00 10° ENE visible
03 Aug -1.9 22:51:31 10° W 22:54:41 39° NNW 22:57:24 13° NE visible
04 Aug -0.1 00:29:43 10° NW 00:30:23 13° NW 00:30:23 13° NW visible
04 Aug -3.2 03:46:25 64° NNW 03:46:49 78° NNE 03:50:10 10° ESE visible
04 Aug -1.4 05:21:24 10° W 05:23:07 13° SW 05:24:50 10° SSW visible
04 Aug -2.7 22:02:32 10° WSW 22:05:50 60° NNW 22:09:09 10° NE visible
04 Aug -0.5 23:40:32 10° WNW 23:43:04 20° NNW 23:44:16 16° NNE visible
